This is the latest recevied weather packets stored in our database for station/object N5AJY. If no packets are shown the sender has not sent any weather packets the latest 1 day(s).
| Time | Temp. | Humidity | Pressure | Rain* | Wind** | Luminosity | Snow |
|---|---|---|---|---|---|---|---|
| 1777991214 | 18.89° C | 84% | 999.6 hPa | 0 mm | 0 m/s | - | - |
| 1777990915 | 19.44° C | 84% | 999.6 hPa | 0 mm | 0 m/s | - | - |
| 1777990614 | 19.44° C | 83% | 999.8 hPa | 0 mm | 0 m/s | - | - |
| 1777990315 | 19.44° C | 82% | 999.7 hPa | 0 mm | 0 m/s | - | - |
| 1777990014 | 20° C | 82% | 999.7 hPa | 0 mm | 0 m/s | - | - |
| 1777989715 | 20° C | 82% | 999.7 hPa | 0 mm | 0 m/s | - | - |
| 1777989414 | 20° C | 82% | 999.6 hPa | 0 mm | 0 m/s | - | - |
| 1777989115 | 20° C | 81% | 999.6 hPa | 0 mm | 0 m/s | - | - |
| 1777988814 | 20° C | 82% | 999.5 hPa | 0 mm | 0 m/s | - | - |
| 1777988513 | 19.44° C | 82% | 999.6 hPa | 0 mm | 0 m/s | - | - |
| 1777988214 | 19.44° C | 82% | 999.7 hPa | 0 mm | 0 m/s | - | - |
| 1777987914 | 19.44° C | 83% | 999.5 hPa | 0 mm | 0 m/s | - | - |
| 1777987615 | 19.44° C | 83% | 999.6 hPa | 0 mm | 0 m/s | - | - |
| 1777987314 | 19.44° C | 83% | 999.6 hPa | 0 mm | 0 m/s | - | - |
| 1777987015 | 18.89° C | 83% | 999.5 hPa | 0 mm | 0 m/s | - | - |
| 1777986714 | 18.89° C | 83% | 999.4 hPa | 0 mm | 0 m/s | - | - |
| 1777986415 | 18.89° C | 83% | 999.4 hPa | 0 mm | 0 m/s | - | - |
| 1777986114 | 17.78° C | 86% | 999.6 hPa | 0 mm | 0 m/s | - | - |
| 1777985815 | 17.78° C | 86% | 999.7 hPa | 0 mm | 0 m/s | - | - |
| 1777985515 | 17.78° C | 86% | 999.7 hPa | 0 mm | 0 m/s | - | - |
| 1777985215 | 17.78° C | 86% | 999.7 hPa | 0 mm | 0 m/s | - | - |
| 1777984914 | 17.78° C | 86% | 999.7 hPa | 0 mm | 0 m/s | - | - |
| 1777984613 | 17.78° C | 86% | 999.6 hPa | 0 mm | 0 m/s | - | - |
| 1777984315 | 17.78° C | 86% | 999.5 hPa | 0 mm | 0 m/s | - | - |
| 1777984014 | 17.78° C | 86% | 999.6 hPa | 0 mm | 0 m/s | - | - |
* Rain latest hour (hover to see other rain measurements)
** Current wind speed in m/s (hover to see current wind gust speed)